N77FS SKBO-SVMI

Flight info

Callsign N77FS
Flight time 1h 26m
Altitude 39000
Route DANSA4R AKROB DCT KIKAS UP533 PBL ALDAK1
Aircraft B772/H-SDE2E3FGHIJ5LORVWXY/LB1D1

Departure

Time 2026-05-04 20:28
Airport El Dorado International Airport (SKBO)

Arrival

Time 2026-05-04 21:54
Airport Maiquetía Simón Bolívar International Airport (SVMI)
Time Latitude Longitude Altitude Speed Heading
2026-05-04 19:37 4.69100 -74.13745 8404 ft 0 kts 38°
2026-05-04 20:12 4.69099 -74.13746 8377 ft 2 kts 38°
2026-05-04 20:13 4.69079 -74.13761 8377 ft 4 kts 38°
2026-05-04 20:13 4.69058 -74.13778 8375 ft 3 kts 37°
2026-05-04 20:13 4.69040 -74.13795 8377 ft 4 kts 66°
2026-05-04 20:13 4.69034 -74.13820 8375 ft 4 kts 84°
2026-05-04 20:14 4.69029 -74.13845 8376 ft 4 kts 53°
2026-05-04 20:14 4.69025 -74.13850 8377 ft 0 kts 42°
2026-05-04 20:19 4.69026 -74.13848 8377 ft 2 kts 47°
2026-05-04 20:19 4.69059 -74.13850 8375 ft 9 kts 326°
2026-05-04 20:19 4.69113 -74.13944 8375 ft 25 kts 278°
2026-05-04 20:19 4.69198 -74.14109 8376 ft 27 kts 308°
2026-05-04 20:20 4.69311 -74.14256 8376 ft 27 kts 307°
2026-05-04 20:20 4.69423 -74.14403 8376 ft 27 kts 307°
2026-05-04 20:20 4.69534 -74.14551 8375 ft 27 kts 307°
2026-05-04 20:20 4.69646 -74.14698 8376 ft 27 kts 307°
2026-05-04 20:21 4.69756 -74.14841 8375 ft 14 kts 307°
2026-05-04 20:21 4.69801 -74.14868 8375 ft 8 kts
2026-05-04 20:21 4.69897 -74.14813 8375 ft 8 kts 37°
2026-05-04 20:22 4.69942 -74.14780 8375 ft 8 kts 37°
2026-05-04 20:22 4.69986 -74.14746 8375 ft 8 kts 37°
2026-05-04 20:22 4.70031 -74.14712 8377 ft 9 kts 37°
2026-05-04 20:22 4.70103 -74.14657 8374 ft 17 kts 37°
2026-05-04 20:23 4.70205 -74.14580 8374 ft 18 kts 37°
2026-05-04 20:23 4.70305 -74.14503 8375 ft 18 kts 38°
2026-05-04 20:23 4.70392 -74.14439 8377 ft 14 kts 36°
2026-05-04 20:23 4.70463 -74.14404 8374 ft 10 kts 350°
2026-05-04 20:24 4.70516 -74.14449 8377 ft 10 kts 307°
2026-05-04 20:24 4.70567 -74.14515 8375 ft 18 kts 307°
2026-05-04 20:24 4.70673 -74.14657 8376 ft 30 kts 307°
2026-05-04 20:24 4.70792 -74.14814 8375 ft 27 kts 307°
2026-05-04 20:25 4.70905 -74.14963 8375 ft 27 kts 307°
2026-05-04 20:25 4.71018 -74.15114 8376 ft 27 kts 307°
2026-05-04 20:25 4.71129 -74.15260 8375 ft 23 kts 307°
2026-05-04 20:25 4.71182 -74.15300 8376 ft 8 kts 349°
2026-05-04 20:26 4.71237 -74.15289 8375 ft 8 kts 27°
2026-05-04 20:26 4.71278 -74.15251 8373 ft 8 kts 47°
2026-05-04 20:26 4.71312 -74.15207 8373 ft 8 kts 68°
2026-05-04 20:26 4.71293 -74.15150 8371 ft 14 kts 126°
2026-05-04 20:27 4.71283 -74.15137 8371 ft 6 kts 126°
2026-05-04 20:27 4.71161 -74.14972 8371 ft 60 kts 127°
2026-05-04 20:27 4.70782 -74.14473 8374 ft 119 kts 127°
2026-05-04 20:27 4.70175 -74.13674 8372 ft 168 kts 127°
2026-05-04 20:28 4.69395 -74.12655 8599 ft 190 kts 128°
2026-05-04 20:28 4.68583 -74.11582 9166 ft 194 kts 126°
2026-05-04 20:28 4.68199 -74.10362 9806 ft 189 kts 84°
2026-05-04 20:28 4.68803 -74.09197 10134 ft 201 kts 41°
2026-05-04 20:29 4.70152 -74.08742 10255 ft 217 kts 358°
2026-05-04 20:29 4.71690 -74.08836 10372 ft 228 kts 13°
2026-05-04 20:29 4.73201 -74.08328 10532 ft 232 kts 24°
2026-05-04 20:29 4.74767 -74.07772 10821 ft 244 kts 21°
2026-05-04 20:30 4.76379 -74.07233 11315 ft 246 kts 22°
2026-05-04 20:30 4.77990 -74.06696 11981 ft 243 kts 22°
2026-05-04 20:30 4.79624 -74.06150 12299 ft 256 kts 23°
2026-05-04 20:30 4.81401 -74.05546 12513 ft 282 kts 22°
2026-05-04 20:31 4.83308 -74.04900 12831 ft 301 kts 22°
2026-05-04 20:31 4.85310 -74.04227 13530 ft 308 kts 22°
2026-05-04 20:31 4.87361 -74.03532 14227 ft 314 kts 22°
2026-05-04 20:31 4.89436 -74.02828 14975 ft 316 kts 22°
2026-05-04 20:32 4.91528 -74.02120 15735 ft 318 kts 22°
2026-05-04 20:32 4.93611 -74.01370 16479 ft 318 kts 29°
2026-05-04 20:32 4.95401 -74.00088 17122 ft 317 kts 51°
2026-05-04 20:32 4.96716 -73.98341 17750 ft 316 kts 57°
2026-05-04 20:33 4.98015 -73.96529 18312 ft 322 kts 57°
2026-05-04 20:33 4.99334 -73.94711 18980 ft 323 kts 57°
2026-05-04 20:33 5.00647 -73.92911 19612 ft 326 kts 56°
2026-05-04 20:33 5.01996 -73.91073 20194 ft 329 kts 56°
2026-05-04 20:34 5.03369 -73.89213 20784 ft 334 kts 56°
2026-05-04 20:34 5.04762 -73.87330 21322 ft 340 kts 56°
2026-05-04 20:34 5.06214 -73.85370 21444 ft 360 kts 56°
2026-05-04 20:34 5.07749 -73.83306 21568 ft 378 kts 55°
2026-05-04 20:35 5.09354 -73.81155 21808 ft 391 kts 55°
2026-05-04 20:35 5.11004 -73.78946 22178 ft 399 kts 55°
2026-05-04 20:35 5.12677 -73.76706 22688 ft 402 kts 55°
2026-05-04 20:35 5.14332 -73.74489 23324 ft 403 kts 55°
2026-05-04 20:36 5.16023 -73.72218 23741 ft 409 kts 55°
2026-05-04 20:36 5.17732 -73.69923 24169 ft 412 kts 55°
2026-05-04 20:36 5.19453 -73.67613 24599 ft 415 kts 55°
2026-05-04 20:36 5.21180 -73.65292 25046 ft 417 kts 56°
2026-05-04 20:37 5.22918 -73.62958 25386 ft 422 kts 55°
2026-05-04 20:37 5.24675 -73.60601 25877 ft 423 kts 55°
2026-05-04 20:37 5.26445 -73.58223 26220 ft 427 kts 54°
2026-05-04 20:37 5.28226 -73.55832 26674 ft 429 kts 55°
2026-05-04 20:38 5.30025 -73.53418 27060 ft 433 kts 56°
2026-05-04 20:38 5.31835 -73.50992 27497 ft 435 kts 55°
2026-05-04 20:38 5.33632 -73.48581 27862 ft 439 kts 55°
2026-05-04 20:38 5.35460 -73.46123 28295 ft 441 kts 55°
2026-05-04 20:39 5.37337 -73.43666 28664 ft 445 kts 52°
2026-05-04 20:39 5.39430 -73.41359 29072 ft 450 kts 46°
2026-05-04 20:39 5.41759 -73.39245 29471 ft 453 kts 44°
2026-05-04 20:39 5.44136 -73.37147 29847 ft 457 kts 44°
2026-05-04 20:40 5.46530 -73.35037 30228 ft 460 kts 44°
2026-05-04 20:40 5.48945 -73.32907 30476 ft 465 kts 43°
2026-05-04 20:40 5.51348 -73.30779 30741 ft 469 kts 43°
2026-05-04 20:40 5.53796 -73.28611 31071 ft 471 kts 44°
2026-05-04 20:41 5.56263 -73.26421 31349 ft 475 kts 43°
2026-05-04 20:41 5.58741 -73.24220 31676 ft 477 kts 43°
2026-05-04 20:41 5.61228 -73.22008 32007 ft 479 kts 43°
2026-05-04 20:41 5.63724 -73.19787 32352 ft 480 kts 43°
2026-05-04 20:42 5.66231 -73.17554 32660 ft 483 kts 43°
2026-05-04 20:42 5.68751 -73.15310 32925 ft 485 kts 43°
2026-05-04 20:42 5.71245 -73.13090 33215 ft 487 kts 43°
2026-05-04 20:42 5.73783 -73.10831 33460 ft 489 kts 43°
2026-05-04 20:43 5.76334 -73.08561 33728 ft 491 kts 43°
2026-05-04 20:43 5.78892 -73.06284 34023 ft 491 kts 43°
2026-05-04 20:43 5.81447 -73.04009 34345 ft 491 kts 43°
2026-05-04 20:43 5.84000 -73.01736 34655 ft 489 kts 43°
2026-05-04 20:44 5.86548 -72.99466 34935 ft 489 kts 42°
2026-05-04 20:44 5.89085 -72.97206 35363 ft 486 kts 43°
2026-05-04 20:44 5.91574 -72.94987 35709 ft 484 kts 43°
2026-05-04 20:44 5.94100 -72.92736 35911 ft 487 kts 43°
2026-05-04 20:45 5.96638 -72.90473 36105 ft 488 kts 42°
2026-05-04 20:45 5.99176 -72.88211 36395 ft 488 kts 42°
2026-05-04 20:45 6.01707 -72.85956 36767 ft 485 kts 43°
2026-05-04 20:45 6.04231 -72.83705 37073 ft 484 kts 43°
2026-05-04 20:46 6.06748 -72.81461 37396 ft 483 kts 43°
2026-05-04 20:46 6.09260 -72.79220 37706 ft 482 kts 42°
2026-05-04 20:46 6.11768 -72.76983 37977 ft 482 kts 42°
2026-05-04 20:46 6.14236 -72.74780 38268 ft 481 kts 43°
2026-05-04 20:47 6.16736 -72.72550 38533 ft 480 kts 43°
2026-05-04 20:47 6.19234 -72.70321 38792 ft 480 kts 42°
2026-05-04 20:47 6.21730 -72.68093 38975 ft 481 kts 42°
2026-05-04 20:47 6.24238 -72.65854 39019 ft 484 kts 42°
2026-05-04 20:48 6.29278 -72.61357 39056 ft 484 kts 42°
2026-05-04 20:48 6.34282 -72.56892 39056 ft 478 kts 43°
2026-05-04 20:49 6.39201 -72.52498 39094 ft 475 kts 43°
2026-05-04 20:49 6.44138 -72.48088 39095 ft 474 kts 43°
2026-05-04 20:50 6.49069 -72.43683 39091 ft 474 kts 43°
2026-05-04 20:50 6.54002 -72.39274 39088 ft 475 kts 43°
2026-05-04 20:51 6.58919 -72.34879 39104 ft 477 kts 43°
2026-05-04 20:51 6.63888 -72.30438 39106 ft 479 kts 43°
2026-05-04 20:52 6.68873 -72.25981 39084 ft 480 kts 42°
2026-05-04 20:52 6.73872 -72.21510 39034 ft 481 kts 43°
2026-05-04 20:53 6.78845 -72.17062 39028 ft 482 kts 43°
2026-05-04 20:53 6.83848 -72.12586 38989 ft 481 kts 43°
2026-05-04 20:54 6.88849 -72.08113 38918 ft 481 kts 43°
2026-05-04 20:54 6.93851 -72.03643 38905 ft 480 kts 43°
2026-05-04 20:55 6.98809 -71.99211 38905 ft 480 kts 43°
2026-05-04 20:55 7.03648 -71.94608 38915 ft 478 kts 48°
2026-05-04 20:56 7.07936 -71.89914 38924 ft 477 kts 49°
2026-05-04 20:56 7.12408 -71.84970 38904 ft 476 kts 49°
2026-05-04 20:57 7.16848 -71.80109 38905 ft 474 kts 49°
2026-05-04 20:57 7.21318 -71.75246 38894 ft 472 kts 49°
2026-05-04 20:58 7.25644 -71.70548 38886 ft 473 kts 49°
2026-05-04 20:58 7.30096 -71.65712 38884 ft 475 kts 49°
2026-05-04 20:59 7.34595 -71.60823 38881 ft 477 kts 49°
2026-05-04 20:59 7.39108 -71.55915 38883 ft 478 kts 49°
2026-05-04 21:00 7.43646 -71.50977 38871 ft 482 kts 48°
2026-05-04 21:00 7.48216 -71.46004 38898 ft 486 kts 48°
2026-05-04 21:01 7.52792 -71.41024 38898 ft 488 kts 48°
2026-05-04 21:01 7.57410 -71.35998 38886 ft 485 kts 49°
2026-05-04 21:02 7.61943 -71.31061 38881 ft 477 kts 48°
2026-05-04 21:02 7.66447 -71.26150 38888 ft 477 kts 49°
2026-05-04 21:03 7.70923 -71.21271 38891 ft 477 kts 48°
2026-05-04 21:03 7.75433 -71.16353 38910 ft 478 kts 48°
2026-05-04 21:04 7.79948 -71.11428 38900 ft 479 kts 49°
2026-05-04 21:04 7.84470 -71.06495 38895 ft 480 kts 49°
2026-05-04 21:05 7.88970 -71.01584 38908 ft 480 kts 48°
2026-05-04 21:05 7.93497 -70.96642 38907 ft 478 kts 48°
2026-05-04 21:06 7.97975 -70.91751 38903 ft 472 kts 48°
2026-05-04 21:06 8.02415 -70.86898 38918 ft 470 kts 48°
2026-05-04 21:07 8.06844 -70.82058 38935 ft 469 kts 48°
2026-05-04 21:07 8.11236 -70.77256 38939 ft 469 kts 48°
2026-05-04 21:08 8.15665 -70.72413 38894 ft 470 kts 47°
2026-05-04 21:08 8.20106 -70.67556 38909 ft 472 kts 47°
2026-05-04 21:09 8.24559 -70.62682 38921 ft 473 kts 47°
2026-05-04 21:09 8.28986 -70.57837 38895 ft 472 kts 47°
2026-05-04 21:10 8.33434 -70.52966 38919 ft 471 kts 47°
2026-05-04 21:10 8.37872 -70.48106 38937 ft 470 kts 47°
2026-05-04 21:11 8.42299 -70.43256 38889 ft 469 kts 47°
2026-05-04 21:11 8.46720 -70.38411 38910 ft 469 kts 47°
2026-05-04 21:12 8.51115 -70.33597 38890 ft 469 kts 47°
2026-05-04 21:12 8.55544 -70.28747 38917 ft 469 kts 47°
2026-05-04 21:13 8.59978 -70.23893 38916 ft 471 kts 47°
2026-05-04 21:13 8.64392 -70.18994 38895 ft 472 kts 48°
2026-05-04 21:14 8.68693 -70.14044 38888 ft 473 kts 49°
2026-05-04 21:14 8.72830 -70.09277 38942 ft 472 kts 49°
2026-05-04 21:15 8.77180 -70.04299 38897 ft 472 kts 48°
2026-05-04 21:15 8.81507 -69.99363 38896 ft 472 kts 49°
2026-05-04 21:16 8.85862 -69.94395 38911 ft 472 kts 48°
2026-05-04 21:16 8.90218 -69.89422 38900 ft 471 kts 48°
2026-05-04 21:17 8.94546 -69.84480 38898 ft 471 kts 48°
2026-05-04 21:17 8.98894 -69.79512 38902 ft 472 kts 48°
2026-05-04 21:18 9.03243 -69.74542 38899 ft 472 kts 48°
2026-05-04 21:18 9.07570 -69.69595 38905 ft 472 kts 48°
2026-05-04 21:19 9.11914 -69.64626 38908 ft 472 kts 48°
2026-05-04 21:19 9.16263 -69.59650 38907 ft 473 kts 48°
2026-05-04 21:20 9.20628 -69.54653 38903 ft 473 kts 48°
2026-05-04 21:20 9.24980 -69.49670 38904 ft 473 kts 48°
2026-05-04 21:21 9.29310 -69.44710 38916 ft 474 kts 48°
2026-05-04 21:21 9.33673 -69.39710 38916 ft 474 kts 48°
2026-05-04 21:22 9.38041 -69.34703 38910 ft 474 kts 48°
2026-05-04 21:22 9.42411 -69.29694 38911 ft 474 kts 48°
2026-05-04 21:23 9.46751 -69.24716 38894 ft 474 kts 48°
2026-05-04 21:23 9.51117 -69.19708 38906 ft 474 kts 48°
2026-05-04 21:24 9.53307 -69.17196 38665 ft 478 kts 47°
2026-05-04 21:24 9.55517 -69.14663 38165 ft 475 kts 47°
2026-05-04 21:24 9.57660 -69.12206 37679 ft 468 kts 47°
2026-05-04 21:24 9.59808 -69.09746 37233 ft 462 kts 47°
2026-05-04 21:25 9.61922 -69.07320 36809 ft 457 kts 47°
2026-05-04 21:25 9.64012 -69.04915 36389 ft 452 kts 47°
2026-05-04 21:25 9.66073 -69.02540 35969 ft 447 kts 47°
2026-05-04 21:25 9.68114 -69.00181 35548 ft 442 kts 47°
2026-05-04 21:26 9.70135 -68.97848 35115 ft 439 kts 47°
2026-05-04 21:26 9.72142 -68.95534 34693 ft 435 kts 47°
2026-05-04 21:26 9.74112 -68.93268 34242 ft 433 kts 47°
2026-05-04 21:26 9.76096 -68.90987 33813 ft 430 kts 47°
2026-05-04 21:27 9.78066 -68.88723 33353 ft 427 kts 47°
2026-05-04 21:27 9.80022 -68.86475 32908 ft 423 kts 47°
2026-05-04 21:27 9.81963 -68.84244 32487 ft 419 kts 47°
2026-05-04 21:27 9.83883 -68.82037 32080 ft 416 kts 47°
2026-05-04 21:28 9.85788 -68.79846 31686 ft 412 kts 47°
2026-05-04 21:28 9.87677 -68.77676 31283 ft 409 kts 47°
2026-05-04 21:28 9.89525 -68.75551 30888 ft 406 kts 47°
2026-05-04 21:28 9.91383 -68.73415 30491 ft 403 kts 47°
2026-05-04 21:29 9.93234 -68.71286 30071 ft 401 kts 47°
2026-05-04 21:29 9.95074 -68.69172 29608 ft 399 kts 47°
2026-05-04 21:29 9.96904 -68.67071 29166 ft 396 kts 47°
2026-05-04 21:29 9.98725 -68.64981 28707 ft 394 kts 47°
2026-05-04 21:30 10.00532 -68.62903 28286 ft 391 kts 47°
2026-05-04 21:30 10.02325 -68.60834 27872 ft 389 kts 47°
2026-05-04 21:30 10.04083 -68.58805 27451 ft 387 kts 47°
2026-05-04 21:30 10.05855 -68.56756 27041 ft 385 kts 47°
2026-05-04 21:31 10.09383 -68.52683 26227 ft 383 kts 47°
2026-05-04 21:31 10.11143 -68.50657 25802 ft 382 kts 47°
2026-05-04 21:31 10.12900 -68.48636 25389 ft 382 kts 47°
2026-05-04 21:32 10.14655 -68.46617 24990 ft 381 kts 47°
2026-05-04 21:32 10.16406 -68.44603 24565 ft 381 kts 47°
2026-05-04 21:32 10.18158 -68.42588 24152 ft 381 kts 47°
2026-05-04 21:32 10.19888 -68.40600 23759 ft 381 kts 47°
2026-05-04 21:33 10.21638 -68.38588 23296 ft 380 kts 47°
2026-05-04 21:33 10.23389 -68.36575 22837 ft 379 kts 48°
2026-05-04 21:33 10.25130 -68.34574 22437 ft 377 kts 48°
2026-05-04 21:33 10.26861 -68.32583 21993 ft 375 kts 49°
2026-05-04 21:34 10.28585 -68.30598 21585 ft 374 kts 49°
2026-05-04 21:34 10.30294 -68.28631 21164 ft 373 kts 49°
2026-05-04 21:34 10.32009 -68.26657 20751 ft 371 kts 50°
2026-05-04 21:34 10.33712 -68.24696 20330 ft 370 kts 50°
2026-05-04 21:35 10.35411 -68.22740 19929 ft 369 kts 50°
2026-05-04 21:35 10.37085 -68.20813 19493 ft 369 kts 50°
2026-05-04 21:35 10.38782 -68.18859 19074 ft 369 kts 51°
2026-05-04 21:35 10.40479 -68.16909 18658 ft 369 kts 51°
2026-05-04 21:36 10.42176 -68.14958 18211 ft 368 kts 51°
2026-05-04 21:36 10.43868 -68.13012 17744 ft 367 kts 52°
2026-05-04 21:36 10.45547 -68.11071 17314 ft 365 kts 52°
2026-05-04 21:36 10.47217 -68.09139 16876 ft 360 kts 53°
2026-05-04 21:37 10.48574 -68.07038 16453 ft 354 kts 70°
2026-05-04 21:37 10.49236 -68.04697 16042 ft 342 kts 79°
2026-05-04 21:37 10.49751 -68.02340 15651 ft 341 kts 79°
2026-05-04 21:37 10.50277 -67.99991 15230 ft 341 kts 78°
2026-05-04 21:38 10.50811 -67.97649 14840 ft 340 kts 78°
2026-05-04 21:38 10.51352 -67.95314 14450 ft 339 kts 78°
2026-05-04 21:38 10.51897 -67.92984 14037 ft 339 kts 78°
2026-05-04 21:38 10.52438 -67.90683 13628 ft 339 kts 78°
2026-05-04 21:39 10.52989 -67.88356 13197 ft 338 kts 78°
2026-05-04 21:39 10.53539 -67.86036 12789 ft 337 kts 78°
2026-05-04 21:39 10.54087 -67.83728 12389 ft 335 kts 78°
2026-05-04 21:39 10.54632 -67.81427 11995 ft 334 kts 78°
2026-05-04 21:40 10.55176 -67.79139 11613 ft 332 kts 79°
2026-05-04 21:40 10.55718 -67.76859 11219 ft 331 kts 79°
2026-05-04 21:40 10.56259 -67.74586 10854 ft 330 kts 79°
2026-05-04 21:40 10.56790 -67.72353 10487 ft 329 kts 79°
2026-05-04 21:41 10.57321 -67.70103 10208 ft 325 kts 79°
2026-05-04 21:41 10.57840 -67.67898 10073 ft 317 kts 79°
2026-05-04 21:41 10.58288 -67.65734 9858 ft 310 kts 86°
2026-05-04 21:41 10.58431 -67.63637 9618 ft 285 kts 91°
2026-05-04 21:42 10.58459 -67.61698 9279 ft 263 kts 93°
2026-05-04 21:42 10.58475 -67.59901 8898 ft 246 kts 94°
2026-05-04 21:42 10.58498 -67.58214 8682 ft 233 kts 94°
2026-05-04 21:42 10.58530 -67.56617 8367 ft 217 kts 93°
2026-05-04 21:43 10.58566 -67.55142 8111 ft 201 kts 94°
2026-05-04 21:43 10.58600 -67.53791 7870 ft 190 kts 94°
2026-05-04 21:43 10.58633 -67.52444 7707 ft 193 kts 93°
2026-05-04 21:43 10.58674 -67.51073 7523 ft 195 kts 93°
2026-05-04 21:44 10.58720 -67.49682 7306 ft 196 kts 93°
2026-05-04 21:44 10.58766 -67.48313 7086 ft 195 kts 93°
2026-05-04 21:44 10.58813 -67.46925 6856 ft 194 kts 93°
2026-05-04 21:44 10.58858 -67.45579 6651 ft 193 kts 93°
2026-05-04 21:45 10.58904 -67.44223 6433 ft 192 kts 93°
2026-05-04 21:45 10.58950 -67.42878 6205 ft 189 kts 93°
2026-05-04 21:45 10.58996 -67.41542 5992 ft 189 kts 93°
2026-05-04 21:45 10.59043 -67.40208 5791 ft 189 kts 93°
2026-05-04 21:46 10.59091 -67.38874 5577 ft 189 kts 93°
2026-05-04 21:46 10.59139 -67.37543 5367 ft 188 kts 92°
2026-05-04 21:46 10.59187 -67.36217 5163 ft 188 kts 92°
2026-05-04 21:46 10.59233 -67.34895 4948 ft 187 kts 93°
2026-05-04 21:47 10.59277 -67.33597 4747 ft 186 kts 92°
2026-05-04 21:47 10.59320 -67.32282 4531 ft 186 kts 92°
2026-05-04 21:47 10.59363 -67.30968 4312 ft 186 kts 92°
2026-05-04 21:47 10.59403 -67.29663 4120 ft 184 kts 91°
2026-05-04 21:48 10.59443 -67.28377 4059 ft 181 kts 93°
2026-05-04 21:48 10.59457 -67.27095 4022 ft 180 kts 93°
2026-05-04 21:48 10.59472 -67.25821 3992 ft 181 kts 92°
2026-05-04 21:48 10.59514 -67.24551 3995 ft 179 kts 91°
2026-05-04 21:49 10.59559 -67.23274 3992 ft 181 kts 91°
2026-05-04 21:49 10.59648 -67.22010 3986 ft 179 kts 90°
2026-05-04 21:49 10.59739 -67.20737 3848 ft 186 kts 88°
2026-05-04 21:49 10.59832 -67.19427 3653 ft 186 kts 89°
2026-05-04 21:50 10.59888 -67.18147 3458 ft 175 kts 90°
2026-05-04 21:50 10.59925 -67.16955 3206 ft 163 kts 90°
2026-05-04 21:50 10.59958 -67.15822 2998 ft 157 kts 90°
2026-05-04 21:50 10.59990 -67.14746 2794 ft 151 kts 91°
2026-05-04 21:51 10.60021 -67.13682 2579 ft 153 kts 91°
2026-05-04 21:51 10.60053 -67.12616 2363 ft 151 kts 91°
2026-05-04 21:51 10.60085 -67.11550 2150 ft 151 kts 91°
2026-05-04 21:51 10.60116 -67.10490 1950 ft 150 kts 90°
2026-05-04 21:52 10.60146 -67.09436 1768 ft 149 kts 90°
2026-05-04 21:52 10.60177 -67.08381 1576 ft 150 kts 90°
2026-05-04 21:52 10.60208 -67.07333 1373 ft 149 kts 91°
2026-05-04 21:52 10.60239 -67.06281 1170 ft 150 kts 90°
2026-05-04 21:53 10.60269 -67.05241 989 ft 148 kts 91°
2026-05-04 21:53 10.60299 -67.04206 805 ft 145 kts 91°
2026-05-04 21:53 10.60323 -67.03189 616 ft 144 kts 92°
2026-05-04 21:53 10.60346 -67.02176 469 ft 142 kts 90°
2026-05-04 21:54 10.60384 -67.01184 280 ft 141 kts 91°
2026-05-04 21:54 10.60413 -67.00266 235 ft 117 kts 88°
2026-05-04 21:54 10.60443 -66.99572 215 ft 82 kts 87°
2026-05-04 21:54 10.60443 -66.99115 198 ft 48 kts 89°
2026-05-04 21:55 10.60457 -66.98778 187 ft 38 kts 88°
2026-05-04 21:55 10.60445 -66.98642 183 ft 4 kts 135°
2026-05-04 21:55 10.60420 -66.98655 183 ft 6 kts 226°
2026-05-04 21:55 10.60363 -66.98745 201 ft 11 kts 238°
2026-05-04 21:56 10.60354 -66.98759 198 ft 0 kts 238°
2026-05-04 21:57 10.60350 -66.98767 202 ft 6 kts 238°
2026-05-04 21:57 10.60304 -66.98843 199 ft 19 kts 240°
2026-05-04 21:57 10.60283 -66.99001 191 ft 25 kts 268°
2026-05-04 21:57 10.60234 -66.99102 204 ft 17 kts 184°
2026-05-04 21:58 10.60130 -66.99093 204 ft 13 kts 171°
2026-05-04 21:58 10.60040 -66.99073 205 ft 13 kts 167°
2026-05-04 21:58 10.59952 -66.99051 196 ft 9 kts 164°
2026-05-04 21:58 10.59924 -66.99000 205 ft 10 kts 90°
2026-05-04 21:59 10.59933 -66.98927 198 ft 11 kts 80°
2026-05-04 21:59 10.59951 -66.98841 203 ft 13 kts 76°
2026-05-04 21:59 10.59900 -66.98788 196 ft 12 kts 161°
2026-05-04 21:59 10.59892 -66.98786 197 ft 0 kts 160°